Weather in Sorokopol'e

Russia / Vologda Oblast     61°15′32″N   36°33′11″E
temp.,
°C
wind,
m/s
gust,
m/s
humid.,
%
clouds,
%
prec.,
mm/h
press.,
hPa
HPBL,
m
26 february, fri
fri2600:00−4se4694100 0.1 1006150
03:00−2se5894100 0.1 1004188
06:00−2se5994100 0.7 999232
09:00−2ese6996100 2.3 995227
12:00−4ese5995100 4.4 993274
15:00−5ene4695100 6.3 994315
18:00−7nne3695100 0.9 996397
21:00−9n2394100 1.4 1000104
27 february, sat
sat2700:00−12nne339199 0.1 100223
03:00−14ene129067 0.1 100520
06:00−13ene119170 0.0 100630
09:00−13n119474 0.1 100928
12:00−10nw229279 0.1 1010198
15:00−8nw349486 0.2 1012249
18:00−7nw229789 0.1 101324
21:00−2nnw499295 0.3 1015462
28 february, sun
sun2800:00−3nnw4992100 0.1 1015327
03:00−7nnw349881 0.1 101733
06:00−10nw229972 0.0 101721
09:00−8w239786 0.1 101866
12:00−7w2397100 0.1 1017166
15:00−7sw129698 0.1 1018104
18:00−9sse129864 0.0 101821
21:00−5sw239678 0.0 101971
1 march, mon
mon100:00−4sw3497100 0.1 1019137
03:00−5ssw3596100 0.1 1019163
06:00−5sw4696100 0.1 1019178
09:00−1wsw5996100 0.2 1017348
12:00+1sw61294100 0.1 1015522
15:00+1wsw61396100 0.1 1013484
18:00+1wsw71395100 0.3 1011411
21:00+1w6149499 0.6 1011432
2 march, tue
tue200:00−1w499761 0.1 1010196
03:00−1w4109577 0.1 1009301
06:00−1wnw4119394 0.0 1008379
09:00−1wnw5129097 0.1 1008596
12:000wnw6118799 0.1 1008815
15:000wnw6128787 0.1 1008730
18:00−2wnw6138946 0.0 1008339
21:000wnw7148671 0.1 1008635